Torna al catalogo

STARLINK-4714

AttivoComunicazioniVLEO
NORAD 53704·PAYLOAD·🇺🇸 United States

Lanciato Sep 5, 2022 da Cape Canaveral Space Force Station

Loading…

Prossimi Passaggi (prossime 24 ore)

TLE

AggiornatoSource: CelesTrak SupGP

Epoca: Sep 14, 2026, 22:04 UTC

1 53704C 22107E   26257.91993056 -.00004810  00000+0 -15471-3 0  2577
2 53704  53.1581 101.7636 0001372  85.6751 354.9459 15.31698308    17

Traccia STARLINK-4714 in tempo reale con AllMySat

Download on the App Store